OOSKW7 ELLX-EDDK

Flight info

Callsign OOSKW7
Flight time 0h 44m
Altitude 9000
Route ASMOX Y891 LULAT DCT GEBSO T856 DEPOK
Aircraft DA42/L-SDFGRY/C

Departure

Time 2026-04-26 14:14
Airport Luxembourg-Findel International Airport (ELLX)

Arrival

Time 2026-04-26 14:58
Airport Cologne Bonn Airport (EDDK)
Time Latitude Longitude Altitude Speed Heading
2026-04-26 13:53 49.62914 6.20906 1213 ft 0 kts 64°
2026-04-26 13:56 49.62914 6.20905 1213 ft 0 kts 64°
2026-04-26 14:06 49.62914 6.20904 1213 ft 0 kts 64°
2026-04-26 14:09 49.62912 6.20909 1213 ft 2 kts 188°
2026-04-26 14:09 49.62889 6.20860 1212 ft 8 kts 192°
2026-04-26 14:09 49.62828 6.20845 1212 ft 13 kts 245°
2026-04-26 14:09 49.62751 6.20747 1212 ft 17 kts 201°
2026-04-26 14:10 49.62664 6.20767 1213 ft 7 kts 143°
2026-04-26 14:10 49.62661 6.20779 1213 ft 0 kts 59°
2026-04-26 14:11 49.62652 6.20806 1213 ft 9 kts 116°
2026-04-26 14:11 49.62646 6.20946 1213 ft 13 kts 90°
2026-04-26 14:12 49.62650 6.21088 1213 ft 14 kts 89°
2026-04-26 14:12 49.62660 6.21199 1213 ft 3 kts 61°
2026-04-26 14:12 49.62661 6.21202 1213 ft 0 kts 60°
2026-04-26 14:13 49.62727 6.21383 1213 ft 51 kts 60°
2026-04-26 14:13 49.62981 6.22060 1248 ft 87 kts 59°
2026-04-26 14:13 49.63309 6.22915 1449 ft 96 kts 58°
2026-04-26 14:14 49.63671 6.23751 1873 ft 90 kts 58°
2026-04-26 14:14 49.63975 6.24585 2284 ft 90 kts 59°
2026-04-26 14:14 49.64277 6.25440 2615 ft 92 kts 60°
2026-04-26 14:14 49.64605 6.26366 2982 ft 103 kts 59°
2026-04-26 14:15 49.64960 6.27332 3346 ft 103 kts 57°
2026-04-26 14:15 49.65313 6.28293 3871 ft 104 kts 59°
2026-04-26 14:15 49.65671 6.29270 4255 ft 105 kts 58°
2026-04-26 14:15 49.66031 6.30243 4730 ft 105 kts 58°
2026-04-26 14:16 49.66396 6.31230 5009 ft 106 kts 58°
2026-04-26 14:16 49.66761 6.32217 5276 ft 106 kts 58°
2026-04-26 14:16 49.67124 6.33211 5582 ft 106 kts 58°
2026-04-26 14:16 49.67491 6.34202 5984 ft 106 kts 59°
2026-04-26 14:17 49.67862 6.35196 6381 ft 107 kts 58°
2026-04-26 14:17 49.68110 6.35851 6643 ft 107 kts 52°
2026-04-26 14:17 49.68694 6.36513 7016 ft 105 kts 17°
2026-04-26 14:17 49.69421 6.36503 7307 ft 107 kts 348°
2026-04-26 14:18 49.70142 6.36205 7592 ft 108 kts 347°
2026-04-26 14:18 49.70866 6.35897 7891 ft 108 kts 347°
2026-04-26 14:18 49.71592 6.35586 8186 ft 109 kts 346°
2026-04-26 14:18 49.72325 6.35271 8457 ft 109 kts 346°
2026-04-26 14:19 49.73051 6.34963 8751 ft 110 kts 346°
2026-04-26 14:19 49.73788 6.34652 9090 ft 110 kts 346°
2026-04-26 14:19 49.74550 6.34328 9230 ft 123 kts 346°
2026-04-26 14:19 49.75426 6.33959 9239 ft 137 kts 346°
2026-04-26 14:20 49.76385 6.33561 9236 ft 148 kts 346°
2026-04-26 14:20 49.77404 6.33132 9237 ft 154 kts 345°
2026-04-26 14:20 49.78445 6.32684 9233 ft 156 kts 345°
2026-04-26 14:20 49.79507 6.32227 9241 ft 159 kts 345°
2026-04-26 14:21 49.80559 6.31772 9228 ft 154 kts 345°
2026-04-26 14:21 49.81581 6.31337 9228 ft 150 kts 345°
2026-04-26 14:21 49.82581 6.30911 9230 ft 149 kts 345°
2026-04-26 14:21 49.83576 6.30488 9239 ft 149 kts 345°
2026-04-26 14:22 49.84585 6.30055 9231 ft 151 kts 345°
2026-04-26 14:22 49.85586 6.29626 9232 ft 148 kts 345°
2026-04-26 14:22 49.86590 6.29204 9230 ft 150 kts 345°
2026-04-26 14:22 49.87587 6.28772 9226 ft 148 kts 345°
2026-04-26 14:23 49.88578 6.28345 9234 ft 148 kts 345°
2026-04-26 14:23 49.89575 6.27931 9228 ft 148 kts 348°
2026-04-26 14:23 49.90599 6.27932 9225 ft 149 kts 12°
2026-04-26 14:23 49.91567 6.28523 9226 ft 150 kts 23°
2026-04-26 14:24 49.92510 6.29194 9222 ft 148 kts 24°
2026-04-26 14:24 49.93441 6.29860 9223 ft 146 kts 23°
2026-04-26 14:24 49.94365 6.30517 9228 ft 147 kts 23°
2026-04-26 14:24 49.95286 6.31177 9219 ft 147 kts 24°
2026-04-26 14:25 49.96212 6.31840 9220 ft 146 kts 23°
2026-04-26 14:25 49.97139 6.32504 9224 ft 148 kts 24°
2026-04-26 14:25 49.98071 6.33172 9221 ft 147 kts 23°
2026-04-26 14:25 49.99003 6.33836 9219 ft 146 kts 23°
2026-04-26 14:26 49.99928 6.34494 9230 ft 147 kts 23°
2026-04-26 14:26 50.00864 6.35168 9232 ft 149 kts 24°
2026-04-26 14:26 50.01807 6.35848 9226 ft 148 kts 23°
2026-04-26 14:26 50.02746 6.36516 9229 ft 148 kts 22°
2026-04-26 14:27 50.03689 6.37190 9221 ft 149 kts 23°
2026-04-26 14:27 50.04620 6.37862 9232 ft 148 kts 23°
2026-04-26 14:27 50.05556 6.38539 9221 ft 148 kts 23°
2026-04-26 14:27 50.06487 6.39204 9217 ft 147 kts 22°
2026-04-26 14:28 50.07413 6.39863 9218 ft 146 kts 22°
2026-04-26 14:28 50.08335 6.40521 9220 ft 146 kts 22°
2026-04-26 14:28 50.09281 6.41102 9226 ft 147 kts 19°
2026-04-26 14:28 50.10224 6.41684 9220 ft 148 kts 19°
2026-04-26 14:29 50.11174 6.42271 9219 ft 146 kts 19°
2026-04-26 14:29 50.12113 6.42843 9221 ft 144 kts 19°
2026-04-26 14:29 50.13048 6.43406 9215 ft 144 kts 19°
2026-04-26 14:29 50.13983 6.43972 9224 ft 145 kts 19°
2026-04-26 14:30 50.14922 6.44543 9218 ft 144 kts 19°
2026-04-26 14:30 50.15854 6.45114 9224 ft 144 kts 19°
2026-04-26 14:30 50.16789 6.45678 9220 ft 144 kts 19°
2026-04-26 14:30 50.17717 6.46241 9223 ft 143 kts 19°
2026-04-26 14:31 50.18653 6.46808 9228 ft 146 kts 19°
2026-04-26 14:31 50.19609 6.47394 9227 ft 148 kts 19°
2026-04-26 14:31 50.20562 6.47976 9220 ft 146 kts 19°
2026-04-26 14:31 50.21501 6.48547 9220 ft 144 kts 19°
2026-04-26 14:32 50.22429 6.49113 9222 ft 143 kts 19°
2026-04-26 14:32 50.23354 6.49675 9222 ft 145 kts 19°
2026-04-26 14:32 50.24290 6.50249 9224 ft 144 kts 19°
2026-04-26 14:32 50.25220 6.50816 9221 ft 143 kts 18°
2026-04-26 14:33 50.26146 6.51381 9225 ft 143 kts 18°
2026-04-26 14:33 50.27071 6.51945 9225 ft 142 kts 18°
2026-04-26 14:33 50.27991 6.52507 9225 ft 142 kts 18°
2026-04-26 14:33 50.28910 6.53068 9227 ft 142 kts 18°
2026-04-26 14:34 50.29830 6.53631 9227 ft 142 kts 18°
2026-04-26 14:34 50.30756 6.54199 9228 ft 143 kts 19°
2026-04-26 14:34 50.31684 6.54768 9233 ft 143 kts 18°
2026-04-26 14:34 50.32600 6.55328 9233 ft 143 kts 18°
2026-04-26 14:35 50.33528 6.55896 9239 ft 144 kts 18°
2026-04-26 14:35 50.34465 6.56470 9228 ft 144 kts 18°
2026-04-26 14:35 50.35399 6.57043 9233 ft 144 kts 18°
2026-04-26 14:35 50.36324 6.57612 9228 ft 141 kts 18°
2026-04-26 14:36 50.37235 6.58170 9234 ft 140 kts 18°
2026-04-26 14:36 50.38143 6.58726 9237 ft 140 kts 18°
2026-04-26 14:36 50.39050 6.59283 9237 ft 140 kts 18°
2026-04-26 14:36 50.39957 6.59840 9238 ft 140 kts 18°
2026-04-26 14:37 50.40865 6.60398 9239 ft 140 kts 18°
2026-04-26 14:37 50.41777 6.60959 9239 ft 141 kts 18°
2026-04-26 14:37 50.42687 6.61518 9241 ft 140 kts 18°
2026-04-26 14:37 50.43595 6.62078 9247 ft 141 kts 18°
2026-04-26 14:38 50.44515 6.62644 9246 ft 143 kts 18°
2026-04-26 14:38 50.45439 6.63214 9248 ft 142 kts 18°
2026-04-26 14:38 50.46360 6.63781 9250 ft 142 kts 18°
2026-04-26 14:38 50.46970 6.64157 9249 ft 142 kts 18°
2026-04-26 14:39 50.48198 6.64915 9255 ft 142 kts 18°
2026-04-26 14:39 50.49122 6.65484 9256 ft 142 kts 18°
2026-04-26 14:39 50.50041 6.66051 9258 ft 142 kts 18°
2026-04-26 14:39 50.50858 6.66876 9253 ft 147 kts 49°
2026-04-26 14:40 50.51235 6.68391 9271 ft 151 kts 71°
2026-04-26 14:40 50.51480 6.70004 9267 ft 152 kts 73°
2026-04-26 14:40 50.51713 6.71628 9271 ft 152 kts 73°
2026-04-26 14:40 50.51944 6.73256 9271 ft 153 kts 73°
2026-04-26 14:41 50.52176 6.74886 9272 ft 153 kts 73°
2026-04-26 14:41 50.52409 6.76515 9274 ft 153 kts 73°
2026-04-26 14:41 50.52642 6.78148 9277 ft 153 kts 73°
2026-04-26 14:41 50.52873 6.79785 9274 ft 154 kts 73°
2026-04-26 14:42 50.53109 6.81427 9271 ft 154 kts 73°
2026-04-26 14:42 50.53342 6.83067 9275 ft 153 kts 73°
2026-04-26 14:42 50.53574 6.84706 9272 ft 153 kts 73°
2026-04-26 14:42 50.53803 6.86322 9276 ft 153 kts 73°
2026-04-26 14:43 50.54032 6.87959 9274 ft 153 kts 73°
2026-04-26 14:43 50.54261 6.89595 9277 ft 153 kts 73°
2026-04-26 14:43 50.54488 6.91231 9273 ft 153 kts 73°
2026-04-26 14:43 50.54714 6.92864 9275 ft 153 kts 73°
2026-04-26 14:44 50.54941 6.94497 9279 ft 153 kts 73°
2026-04-26 14:44 50.55166 6.96132 9280 ft 153 kts 73°
2026-04-26 14:44 50.55390 6.97765 9275 ft 153 kts 73°
2026-04-26 14:44 50.55614 6.99395 9273 ft 152 kts 73°
2026-04-26 14:45 50.55837 7.01024 9279 ft 153 kts 73°
2026-04-26 14:45 50.55985 7.02107 9271 ft 153 kts 73°
2026-04-26 14:45 50.56285 7.04297 9276 ft 153 kts 73°
2026-04-26 14:45 50.56510 7.05941 9107 ft 154 kts 73°
2026-04-26 14:46 50.56734 7.07568 8930 ft 154 kts 73°
2026-04-26 14:46 50.56963 7.09217 8750 ft 154 kts 73°
2026-04-26 14:46 50.57192 7.10856 8570 ft 153 kts 73°
2026-04-26 14:46 50.57422 7.12494 8396 ft 153 kts 73°
2026-04-26 14:47 50.57652 7.14130 8216 ft 153 kts 73°
2026-04-26 14:47 50.57884 7.15769 8039 ft 153 kts 73°
2026-04-26 14:47 50.58116 7.17394 7871 ft 152 kts 73°
2026-04-26 14:47 50.58347 7.19019 7695 ft 152 kts 73°
2026-04-26 14:48 50.58580 7.20638 7520 ft 152 kts 73°
2026-04-26 14:48 50.58816 7.22261 7350 ft 152 kts 73°
2026-04-26 14:48 50.59052 7.23877 7176 ft 151 kts 73°
2026-04-26 14:48 50.59290 7.25487 7011 ft 152 kts 73°
2026-04-26 14:49 50.59530 7.27111 6843 ft 152 kts 73°
2026-04-26 14:49 50.59777 7.28737 6670 ft 152 kts 73°
2026-04-26 14:49 50.60240 7.30179 6486 ft 147 kts 38°
2026-04-26 14:49 50.61136 7.30872 6251 ft 143 kts 14°
2026-04-26 14:50 50.62080 7.31313 6003 ft 145 kts 13°
2026-04-26 14:50 50.63046 7.31746 5739 ft 143 kts 13°
2026-04-26 14:50 50.64005 7.32183 5488 ft 144 kts 13°
2026-04-26 14:50 50.64965 7.32616 5244 ft 143 kts 13°
2026-04-26 14:51 50.65935 7.33049 4988 ft 145 kts 13°
2026-04-26 14:51 50.66908 7.33487 4738 ft 147 kts 13°
2026-04-26 14:51 50.67887 7.33918 4464 ft 144 kts 13°
2026-04-26 14:51 50.68860 7.34321 4224 ft 146 kts 13°
2026-04-26 14:52 50.69845 7.34676 3947 ft 144 kts
2026-04-26 14:52 50.70724 7.34167 3707 ft 137 kts 320°
2026-04-26 14:52 50.71387 7.33080 3457 ft 136 kts 312°
2026-04-26 14:52 50.72087 7.32101 3230 ft 135 kts 330°
2026-04-26 14:53 50.72916 7.31355 3048 ft 139 kts 331°
2026-04-26 14:53 50.73735 7.30587 2998 ft 132 kts 330°
2026-04-26 14:53 50.74505 7.29844 2983 ft 129 kts 329°
2026-04-26 14:53 50.75244 7.29087 3001 ft 128 kts 328°
2026-04-26 14:54 50.75961 7.28160 2920 ft 139 kts 319°
2026-04-26 14:54 50.76700 7.27097 2726 ft 142 kts 319°
2026-04-26 14:54 50.77406 7.26077 2545 ft 135 kts 319°
2026-04-26 14:54 50.78083 7.25099 2379 ft 131 kts 319°
2026-04-26 14:55 50.78754 7.24128 2197 ft 131 kts 319°
2026-04-26 14:55 50.79415 7.23180 2029 ft 128 kts 319°
2026-04-26 14:55 50.80036 7.22281 1848 ft 112 kts 319°
2026-04-26 14:55 50.80592 7.21472 1698 ft 107 kts 319°
2026-04-26 14:56 50.81130 7.20699 1549 ft 101 kts 319°
2026-04-26 14:56 50.81629 7.19977 1423 ft 96 kts 319°
2026-04-26 14:56 50.82122 7.19258 1288 ft 97 kts 319°
2026-04-26 14:56 50.82624 7.18531 1129 ft 99 kts 319°
2026-04-26 14:57 50.83120 7.17784 996 ft 98 kts 317°
2026-04-26 14:57 50.83628 7.17068 880 ft 97 kts 319°
2026-04-26 14:57 50.84135 7.16361 736 ft 97 kts 317°
2026-04-26 14:57 50.84623 7.15649 606 ft 94 kts 315°
2026-04-26 14:58 50.85099 7.14948 486 ft 94 kts 317°
2026-04-26 14:58 50.85542 7.14321 387 ft 80 kts 316°
2026-04-26 14:58 50.85944 7.13738 271 ft 76 kts 317°
2026-04-26 14:58 50.86246 7.13301 246 ft 45 kts 317°
2026-04-26 14:59 50.86447 7.13009 243 ft 37 kts 317°
2026-04-26 14:59 50.86636 7.12733 236 ft 37 kts 318°
2026-04-26 14:59 50.86771 7.12643 233 ft 13 kts 31°
2026-04-26 14:59 50.86790 7.12670 232 ft 9 kts 46°
2026-04-26 15:00 50.86823 7.12727 233 ft 0 kts 48°
2026-04-26 15:01 50.86823 7.12726 233 ft 0 kts 48°
2026-04-26 15:02 50.86825 7.12730 233 ft 4 kts 44°
2026-04-26 15:02 50.86890 7.12721 232 ft 13 kts 317°
2026-04-26 15:02 50.86962 7.12616 230 ft 14 kts 317°
2026-04-26 15:02 50.87009 7.12547 228 ft 13 kts 317°
2026-04-26 15:03 50.87074 7.12453 227 ft 13 kts 316°
2026-04-26 15:03 50.87135 7.12415 227 ft 8 kts 28°
2026-04-26 15:03 50.87165 7.12444 227 ft 5 kts 315°
2026-04-26 15:03 50.87173 7.12430 227 ft 0 kts 316°